Simultaneous Nadir Overpasses (SNOs) Predictions

Prediction of SNOs between AQUA and METOP-B Satellite Orbit:

Table of predicted SNOs for the next 14.0 days since TLE Epoch: 6/6/2014
Index Date (AQUA) Time (AQUA) Lat,Lon (AQUA) SZA (AQUA ) Date (METOP-B) Time (METOP-B) Lat,Lon (METOP-B) SZA (METOP-B ) Distance(km) Time Diff (sec)
1 06/06/2014 20:03:18 73.76,-126.33 51.04 06/06/2014 20:02:34 73.73,-126.35 51.03 2.93 44
2 06/06/2014 20:52:45 -73.85, 41.12 128.87 06/06/2014 20:53:13 -73.84, 41.22 128.89 3.26 28
3 06/09/2014 15:37:33 73.75, -59.87 50.78 06/09/2014 15:36:55 73.75, -59.91 50.79 1.25 38
4 06/09/2014 16:27:00 -73.83, 107.59 129.14 06/09/2014 16:27:34 -73.85, 107.66 129.12 2.96 34
5 06/12/2014 11:11:48 73.76, 6.53 50.60 06/12/2014 11:11:16 73.76, 6.51 50.60 1.04 32
6 06/12/2014 12:01:15 -73.84, 174.01 129.32 06/12/2014 12:01:55 -73.86, 174.09 129.31 3.33 40
7 06/15/2014 06:46:01 73.75, 73.00 50.44 06/15/2014 06:45:36 73.76, 72.93 50.46 2.63 25
8 06/15/2014 07:35:28 -73.82,-119.51 129.48 06/15/2014 07:36:16 -73.81,-119.61 129.49 3.09 48
9 06/18/2014 01:30:36 -73.15, -26.94 130.28 06/18/2014 01:29:29 -73.14, -29.40 130.19 79.39 67
10 06/18/2014 02:20:15 73.76, 139.42 50.37 06/18/2014 02:19:57 73.75, 139.33 50.37 3.05 18
11 06/18/2014 03:09:43 -73.88, -53.20 129.51 06/18/2014 03:10:36 -73.86, -53.08 129.53 3.84 53




NCC Satellite Simultaneous Nadir Overpasses (SNOs) Prediction Service
